[Iaude] MPEC E77: 2024 EX1 [a=2.10,e=0.64,i=7.5,H=26.0]
    mpec at cfa.harvard.edu 
    mpec at cfa.harvard.edu
       
    Wed Mar  6 08:10:17 EST 2024
    
    
  
M.P.E.C. 2024-E77                                 Issued 2024 March 6, 13:08 UT
     The Minor Planet Electronic Circulars contain information on unusual
         minor planets, routine data on comets and natural satellites,
         and occasional editorial announcements.  They are published
    on behalf of Division F of the International Astronomical Union by the
          Minor Planet Center, Smithsonian Astrophysical Observatory,
                          Cambridge, MA 02138, U.S.A.
			  
             Prepared using the Tamkin Foundation Computer Network
                              MPC at CFA.HARVARD.EDU
            URL https://www.minorplanetcenter.net/    ISSN 1523-6714
                                    2024 EX1                                    
Observations:
     K24E01X  C2024 03 02.47762611 55 21.908-02 52 16.15         19.52GVEE077F51
     K24E01X  C2024 03 02.48967911 55 18.917-02 48 37.16         19.43GVEE077F51
     K24E01X  C2024 03 02.50233011 55 15.797-02 44 47.71         19.57GVEE077F51
     K24E01X  C2024 03 02.51434111 55 12.870-02 41 11.72         19.56GVEE077F51
     K24E01X  C2024 03 02.52115711 55 11.215-02 39 09.92         19.45GVEE077F51
     K24E01X*1C2024 03 05.35098311 50 45.265+05 45 56.23         20.49GVEE077G96
     K24E01X 1C2024 03 05.35619111 50 44.718+05 46 29.57         20.88GVEE077G96
     K24E01X 1C2024 03 05.36142011 50 44.092+05 47 02.58         20.51GVEE077G96
     K24E01X 1C2024 03 05.36663811 50 43.573+05 47 35.05               VEE077G96
     K24E01X KC2024 03 05.44111111 50 35.783+05 55 21.54         20.50GVEE077I52
     K24E01X KC2024 03 05.44282511 50 35.606+05 55 32.45         20.71GVEE077I52
     K24E01X KC2024 03 05.44453611 50 35.455+05 55 42.20         20.82GVEE077I52
     K24E01X KC2024 03 05.44585911 50 35.300+05 55 50.99         20.54GVEE077I52
     K24E01X KC2024 03 06.10934411 50 01.392+06 57 54.54         20.7 GVEE077J95
     K24E01X KC2024 03 06.12593411 50 00.026+06 59 19.07         21.2 GVEE077J95
Observer details:
F51 Pan-STARRS 1, Haleakala.  Observers J. Herman, T. Lowe, P. Minguez, A.
    Schultz, I. Smith.  Measurers K. Chambers, T. de Boer, J. Fairlamb, H.
    Gao, M. Huber, C.-C. Lin, E. Magnier, Y. Ramanjooloo, R. Wainscoat, R.
    Weryk.  1.8-m Ritchey-Chretien + CCD.
G96 Mt. Lemmon Survey.  Observer G. J. Leonard.  Measurers T. Beuden, V. F.
    Carvajal, D. Fay, J. B. Fazekas, D. C. Fuls, A. R. Gibbs, A. D. Grauer, H.
    Groeller, J. K. Hogan, R. A. Kowalski, S. M. Larson, G. J. Leonard, D.
    Rankin, R. L. Seaman, F. C. Shelly, K. W. Wierzchos.  1.5-m reflector +
    10K CCD.
I52 Steward Observatory, Mt. Lemmon Station.  Observer J. K. Hogan.  Measurers
    T. Beuden, V. F. Carvajal, D. Fay, J. B. Fazekas, D. C. Fuls, A. R. Gibbs,
    A. D. Grauer, H. Groeller, J. K. Hogan, R. A. Kowalski, S. M. Larson, G.
    J. Leonard, D. Rankin, R. L. Seaman, F. C. Shelly, K. W. Wierzchos.  1.0-m
    prime focus + CCD.
J95 Great Shefford.  Observer P. Birtwhistle.  0.41-m f/6.3 Schmidt-Cassegrain
    + CCD.
Orbital elements:
2024 EX1                                                 Earth MOID = 0.0111 AU
Epoch 2024 Mar. 31.0 TT = JDT 2460400.5                 Veres                   
M  24.38381              (2000.0)            P               Q                  
n   0.32494982     Peri.  286.68617     -0.00647110     -0.99929110             
a   2.0953593      Node   163.55072     +0.96011753     -0.01657586             
e   0.6439023      Incl.    7.52574     +0.27952184     +0.03380150             
P   3.03           H   26.03          G   0.15           U   9                  
Residuals in seconds of arc
240302 F51  0.0   0.0     240305 G96  0.2+  0.1-    240305 I52  0.0   0.4+
240302 F51  0.0   0.2-    240305 G96  0.5+  0.1+    240305 I52  0.3+  0.4-
240302 F51  0.1-  0.3+    240305 G96  0.3-  0.2-    240305 I52  0.1-  0.3+
240302 F51  0.0   0.1+    240305 G96  0.4+  0.8-    240306 J95  0.1+  0.3+
240302 F51  0.1-  0.2-    240305 I52  0.1+  0.1+    240306 J95  0.6-  0.3-
Ephemeris:
2024 EX1                 a,e,i = 2.10, 0.64, 8                   q = 0.7462
Date    TT    R. A. (2000) Decl.     Delta      r    Elong.  Phase     V
2024 02 05    23 34 05.3 -20 29 22   0.2235  0.8105    34.1   137.0    28.8
...
2024 02 20    23 38 14.4 -27 45 59   0.07450 0.9224    26.4   151.6    29.0
...
2024 02 28    12 45 46.3 -60 49 21   0.01363 0.9943   106.6    72.7    19.2
...
2024 03 05    11 51 07.6 +05 07 40   0.06075 1.0513   168.0    11.3    20.8
2024 03 06    11 50 09.2 +06 49 45   0.07009 1.0610   169.2    10.1    21.0
2024 03 07    11 49 22.3 +08 07 44   0.07952 1.0708   170.0     9.3    21.3
...
2024 03 13    11 46 33.9 +12 03 49   0.1376  1.1298   170.3     8.6    22.6
...
2024 03 21    11 44 58.5 +13 43 04   0.2192  1.2095   165.4    11.9    23.9
...
2024 04 05    11 45 40.7 +13 54 15   0.3885  1.3590   153.4    19.2    25.6
M. P. C. Staff               (C) Copyright 2024 MPC           M.P.E.C. 2024-E77
    
    
More information about the Iaude
mailing list